Location: Beutels
(47.8767°N, 9.8584°E)
Time: 00:19:11
(UTC+00:00)

Okean O Rocket - Pass Details

Date: 19 May 2025
Orbit: 614 x 636 km, 98.0° (Epoch: 15 June)

Event Time Altitude Azimuth Distance (km) Brightness Sun altitude
Exits shadow 19:57:25 - 174° (S) 2,506 4.2 -8.8°
Reaches altitude 10° 19:58:40 10° 176° (S) 2,000 3.7 -8.9°
Maximum altitude 20:02:59 65° 258° (WSW) 691 2.0 -9.5°
Drops below altitude 10° 20:07:19 10° 341° (NNW) 2,002 5.3 -10.0°
Sets 20:09:32 0° 344° (NNW) 2,910 6.2 -10.2°
